一网星座-0244星 (ONEWEB-0244 )

导读 | 豆包AI

ONEWEB-0244是英国OneWeb公司的低轨宽带通信卫星,于2021年5月28日发射入轨,隶属于OneWeb一期全球互联网星座。卫星单星重约147.5公斤,运行于1200公里近极地轨道,配备Ku/Ka波段天线,单星通信能力约7.5Gbps,为全球用户提供低延迟宽带接入服务,设计寿命5年,离轨机制符合空间碎片管控规范。

基本信息
目录编号:
48776
目录名称:
ONEWEB-0244
国际标识:
2021-045K
轨道中心:
EARTH
卫星名称:
一网星座-0244星
卫星全名:
一网星座-0244星 (ONEWEB-0244 )
卫星状态:
在轨 (已飞行1751 天)
发射日期:
2021-05-28 UTC
国别 :
英国 (GB)
星等 :
--
轨道信息
数据来源 国际轨道数据 AOE轨道数据
星历时间 2026-03-14T06:14:28+0800
12小时前
查看轨道信息
2026-03-13T06:00:00+0800
1天前
查看轨道信息
半长轴 7579.912km 7579.915km
偏心率 0.0001677 0.0001226
轨道倾角 87.894° 87.895°
近地点辐角 95.318° 94.412°
升交点赤经 278.192° 278.392°
平近点角 264.814° 164.897°
近地点 1200.503km 1200.848km
远地点 1203.047km 1202.708km
周期 109.460分钟 109.460分钟
每日圈数 13.155477 13.155468
详细信息
平衡模式:
三轴稳定
覆盖范围:
全球
运营商:
一网卫星公司
运营商所在国:
英国
制造商(研发单位):
一网卫星公司
制造商所在国:
英国
使用方式:
暂无
卫星简介
OneWeb卫星网络由648颗重约125公斤的微型卫星组成,运行在1200公里的轨道上。 每颗卫星都能够提供至少每秒8千兆位的吞吐量,以使用其高吞吐量的Ku频段有效载荷为家庭和移动平台提供互联网接入。该卫星仍在工作。
2D轨道图
3D轨道图
轨道高度分析图
轨道倾角分析图
轨道综合分析图
查看轨道综合分析图